THY165 KEWR-LTFM

Flight info

Callsign THY165
Flight time N/A
Altitude 33000
Route GREKI DCT JUDDS DCT MARTN DCT EBONY N633A RIKAL/M083F340 NATY XETBO/N0473F350 DCT ENJEX DCT ADHAV DCT AGCAT DCT AXNEF DCT ZIPWE DCT OZZIL DCT SAWPE Q63 CPT UL9 BIG L607 KONAN UL607 KOK DCT DENOX DCT REMBA UL607 SPI DCT ULNOK DCT VIBOM DCT NOMBO DCT RIDAR DCT GOMIG DCT VATET DCT INLOX DCT OBUTI/N0476F370 DCT LAKIK DCT ETIDA T390 RILEX
Aircraft B77W/H-SDE1E2E3FGHIJ2J3J4J5M1RWXY/LB1D1

Departure

Time 2026-04-20 01:34
Airport Newark Liberty International Airport (KEWR)

Arrival

Time N/A
Airport İstanbul Airport (LTFM)
Time Latitude Longitude Altitude Speed Heading
2026-04-20 00:07 40.69249 -74.17342 30 ft 0 kts 257°
2026-04-20 01:17 40.69250 -74.17332 29 ft 2 kts 253°
2026-04-20 01:18 40.69257 -74.17315 29 ft 2 kts 225°
2026-04-20 01:18 40.69269 -74.17303 29 ft 2 kts 203°
2026-04-20 01:18 40.69283 -74.17298 29 ft 2 kts 181°
2026-04-20 01:18 40.69298 -74.17300 29 ft 2 kts 160°
2026-04-20 01:19 40.69311 -74.17310 29 ft 2 kts 138°
2026-04-20 01:19 40.69318 -74.17320 29 ft 0 kts 122°
2026-04-20 01:19 40.69320 -74.17325 29 ft 0 kts 121°
2026-04-20 01:25 40.69317 -74.17317 29 ft 1 kts 122°
2026-04-20 01:25 40.69307 -74.17298 29 ft 3 kts 122°
2026-04-20 01:25 40.69291 -74.17266 29 ft 5 kts 123°
2026-04-20 01:25 40.69268 -74.17220 29 ft 5 kts 123°
2026-04-20 01:26 40.69250 -74.17176 29 ft 5 kts 116°
2026-04-20 01:26 40.69233 -74.17130 29 ft 5 kts 117°
2026-04-20 01:26 40.69207 -74.17085 29 ft 7 kts 147°
2026-04-20 01:26 40.69152 -74.17081 29 ft 8 kts 197°
2026-04-20 01:27 40.69100 -74.17112 29 ft 8 kts 207°
2026-04-20 01:27 40.69047 -74.17148 29 ft 8 kts 207°
2026-04-20 01:27 40.69000 -74.17179 29 ft 7 kts 207°
2026-04-20 01:27 40.68958 -74.17206 29 ft 6 kts 206°
2026-04-20 01:28 40.68921 -74.17230 29 ft 6 kts 205°
2026-04-20 01:28 40.68879 -74.17255 29 ft 6 kts 205°
2026-04-20 01:28 40.68830 -74.17284 29 ft 9 kts 205°
2026-04-20 01:28 40.68750 -74.17334 29 ft 15 kts 206°
2026-04-20 01:29 40.68652 -74.17397 29 ft 15 kts 207°
2026-04-20 01:29 40.68552 -74.17461 29 ft 16 kts 206°
2026-04-20 01:29 40.68441 -74.17532 29 ft 18 kts 206°
2026-04-20 01:29 40.68330 -74.17602 29 ft 16 kts 205°
2026-04-20 01:30 40.68225 -74.17668 29 ft 16 kts 206°
2026-04-20 01:30 40.68128 -74.17731 29 ft 14 kts 206°
2026-04-20 01:30 40.68044 -74.17784 29 ft 12 kts 205°
2026-04-20 01:30 40.67956 -74.17839 29 ft 14 kts 205°
2026-04-20 01:31 40.67873 -74.17890 29 ft 12 kts 206°
2026-04-20 01:31 40.67801 -74.17937 29 ft 10 kts 206°
2026-04-20 01:31 40.67742 -74.17974 29 ft 8 kts 206°
2026-04-20 01:31 40.67694 -74.18006 29 ft 7 kts 206°
2026-04-20 01:32 40.67651 -74.18034 29 ft 6 kts 202°
2026-04-20 01:32 40.67611 -74.18036 29 ft 5 kts 162°
2026-04-20 01:32 40.67575 -74.17996 29 ft 7 kts 120°
2026-04-20 01:32 40.67576 -74.17930 29 ft 7 kts 55°
2026-04-20 01:33 40.67612 -74.17898 29 ft 0 kts 27°
2026-04-20 01:33 40.67615 -74.17896 29 ft 2 kts 27°
2026-04-20 01:33 40.67751 -74.17811 29 ft 57 kts 25°
2026-04-20 01:34 40.68374 -74.17416 30 ft 138 kts 26°
2026-04-20 01:34 40.69414 -74.16741 269 ft 187 kts 21°
2026-04-20 01:34 40.70576 -74.15821 1145 ft 204 kts 32°
2026-04-20 01:34 40.71637 -74.14741 2180 ft 187 kts 34°
2026-04-20 01:35 40.72610 -74.13571 2615 ft 201 kts 52°
2026-04-20 01:35 40.73414 -74.11974 2969 ft 215 kts 44°
2026-04-20 01:35 40.74594 -74.10639 3322 ft 231 kts 34°
2026-04-20 01:35 40.75900 -74.09306 3854 ft 246 kts 34°
2026-04-20 01:36 40.77264 -74.07873 4434 ft 259 kts 35°
2026-04-20 01:36 40.78672 -74.06372 5230 ft 264 kts 35°
2026-04-20 01:36 40.80118 -74.04823 6005 ft 268 kts 34°
2026-04-20 01:36 40.81558 -74.03284 6754 ft 271 kts 34°
2026-04-20 01:37 40.83013 -74.01726 7505 ft 274 kts 34°
2026-04-20 01:37 40.84496 -74.00121 8225 ft 277 kts 33°
2026-04-20 01:37 40.86002 -73.98528 8879 ft 281 kts 34°
2026-04-20 01:37 40.87544 -73.96897 9513 ft 286 kts 37°
2026-04-20 01:38 40.89100 -73.95218 10134 ft 291 kts 37°
2026-04-20 01:38 40.90700 -73.93519 10481 ft 307 kts 39°
2026-04-20 01:38 40.92413 -73.91678 10794 ft 328 kts 37°
2026-04-20 01:38 40.94255 -73.89705 11054 ft 352 kts 36°
2026-04-20 01:39 40.96237 -73.87599 11317 ft 375 kts 34°
2026-04-20 01:39 40.98324 -73.85362 11638 ft 396 kts 34°
2026-04-20 01:39 41.00469 -73.83064 12284 ft 404 kts 34°
2026-04-20 01:39 41.02641 -73.80717 13231 ft 405 kts 34°
2026-04-20 01:40 41.04840 -73.78341 13993 ft 413 kts 34°
2026-04-20 01:40 41.07108 -73.75884 14494 ft 427 kts 33°
2026-04-20 01:40 41.09450 -73.73341 14978 ft 439 kts 33°
2026-04-20 01:40 41.11830 -73.70782 15539 ft 447 kts 34°
2026-04-20 01:41 41.14283 -73.68141 16040 ft 457 kts 34°
2026-04-20 01:41 41.16750 -73.65472 16619 ft 464 kts 35°
2026-04-20 01:41 41.19276 -73.62739 17087 ft 474 kts 36°
2026-04-20 01:41 41.21869 -73.59937 17543 ft 484 kts 36°
2026-04-20 01:42 41.24470 -73.57095 18154 ft 489 kts 36°
2026-04-20 01:42 41.27148 -73.54180 18686 ft 497 kts 37°
2026-04-20 01:42 41.29821 -73.51277 19172 ft 505 kts 37°
2026-04-20 01:42 41.32583 -73.48280 19774 ft 511 kts 36°
2026-04-20 01:43 41.35357 -73.45257 20386 ft 515 kts 37°
2026-04-20 01:43 41.38132 -73.42241 20948 ft 521 kts 36°
2026-04-20 01:43 41.40963 -73.39171 21431 ft 528 kts 37°
2026-04-20 01:43 41.43811 -73.36047 22030 ft 531 kts 38°
2026-04-20 01:44 41.46701 -73.32871 22565 ft 537 kts 39°
2026-04-20 01:44 41.49451 -73.29530 22956 ft 544 kts 44°
2026-04-20 01:44 41.52161 -73.25944 23433 ft 549 kts 45°
2026-04-20 01:44 41.54887 -73.22379 23900 ft 554 kts 42°
2026-04-20 01:45 41.57909 -73.19196 24312 ft 557 kts 32°
2026-04-20 01:45 41.61260 -73.16558 24748 ft 558 kts 23°
2026-04-20 01:45 41.64835 -73.14546 25137 ft 557 kts 13°
2026-04-20 01:45 41.68559 -73.13197 25519 ft 555 kts
2026-04-20 01:46 41.72342 -73.12533 25940 ft 549 kts 354°
2026-04-20 01:46 41.76163 -73.12541 26329 ft 542 kts 345°
2026-04-20 01:46 41.79847 -73.13126 26735 ft 539 kts 340°
2026-04-20 01:46 41.83542 -73.13858 27377 ft 537 kts 340°
2026-04-20 01:47 41.87270 -73.14582 27979 ft 538 kts 340°
2026-04-20 01:47 41.90938 -73.15277 28410 ft 541 kts 341°
2026-04-20 01:47 41.94722 -73.15979 28788 ft 546 kts 341°
2026-04-20 01:47 41.98463 -73.16659 29127 ft 552 kts 342°
2026-04-20 01:48 42.02289 -73.17343 29571 ft 554 kts 342°
2026-04-20 01:48 42.06072 -73.18008 30213 ft 552 kts 342°
2026-04-20 01:48 42.09885 -73.18673 30908 ft 547 kts 342°
2026-04-20 01:48 42.13672 -73.19333 31391 ft 547 kts 342°
2026-04-20 01:49 42.17432 -73.19989 31718 ft 550 kts 342°
2026-04-20 01:49 42.21244 -73.20653 32101 ft 551 kts 342°
2026-04-20 01:49 42.25066 -73.21314 32597 ft 549 kts 343°
2026-04-20 01:49 42.28851 -73.21970 32940 ft 550 kts 343°